Weather in Rusakovka

Russia / Republic of Crimea     45°07′18″N   34°28′21″E
temp.,
°C
wind,
m/s
gust,
m/s
humid.,
%
clouds,
%
prec.,
mm/h
press.,
hPa
HPBL,
m
28 september, tue
tue2800:00+9wsw11640 0.0 101911
03:00+8wsw11681 0.0 101911
06:00+7sw11774 0.0 102011
09:00+11n12654 0.0 1020415
12:00+14ne445899 0.1 10201425
15:00+14ne235197 0.1 10201406
18:00+12ne356476 0.0 1022535
21:00+10e137717 0.0 1023102
29 september, wed
wed2900:00+8e118474 0.0 102311
03:00+8ne018826 0.0 102311
06:00+8ene018982 0.1 102315
09:00+11nne377776 0.4 1023657
12:00+14ne685885 0.4 10231491
15:00+13ne686553 1.1 10231254
18:00+10ne597917 0.3 1024696
21:00+9ne3118826 0.4 1026453
30 september, thu
thu3000:00+10ene61084100 0.5 1025879
03:00+9ene5108095 0.9 1025886
06:00+8ne51079100 0.3 1025696
09:00+9ne6107772 0.3 10261113
12:00+11ne9105717 0.1 10261218
15:00+12ne910503 0.1 10251223
18:00+10ne711592 0.0 10261052
21:00+9ene512623 0.0 1026564
1 october, fri
fri100:00+8ene411631 0.0 1027429
03:00+7ene310683 0.0 1027319
06:00+7ene412723 0.0 1027408
09:00+10ene811573 0.0 10271068
12:00+12ne810475 0.0 10271255
15:00+12ne9105519 0.0 10271384
18:00+10ne7106084 0.0 10271283
21:00+10ene6116092 0.0 10271070
2 october, sat
sat200:00+10ene6105571 0.0 1026996
03:00+8ene3117238 0.0 1026422
06:00+7ene5137260 0.0 1025573
09:00+10ene7127071 0.0 10251040
12:00+11ene7868100 0.1 10241097
15:00+12ene6869100 0.1 10231108
18:00+11ene5880100 0.0 1023821
21:00+10ene4987100 0.0 1024585